CDT,Max TemperatureF,Mean TemperatureF,Min TemperatureF,Max Dew PointF,MeanDew PointF,Min DewpointF,Max Humidity, Mean Humidity, Min Humidity, Max Sea Level PressureIn, Mean Sea Level PressureIn, Min Sea Level PressureIn, Max VisibilityMiles, Mean VisibilityMiles, Min VisibilityMiles, Max Wind SpeedMPH, Mean Wind SpeedMPH, Max Gust SpeedMPH,PrecipitationIn, CloudCover, Events, WindDirDegrees
2013-6-1,70,64,58,64,55,50,93,74,55,29.99,29.84,29.72,10,10,10,24,11,29,0.00,4,,296
2013-6-2,69,59,48,52,49,46,93,71,49,30.12,30.06,30.01,10,10,10,18,8,22,0.00,6,,349
2013-6-3,76,60,44,56,51,42,93,71,49,30.08,29.99,29.88,10,10,6,20,9,26,0.00,0,,132
2013-6-4,78,70,62,64,61,56,87,76,64,29.96,29.92,29.86,10,10,10,22,9,26,0.01,3,Rain,139
2013-6-5,70,65,59,64,61,59,93,86,78,29.99,29.95,29.91,10,9,4,17,5,21,0.02,6,Rain,31
2013-6-6,77,66,54,58,54,51,93,68,43,29.98,29.96,29.91,10,9,2,17,8,22,0.00,3,,322
2013-6-7,78,64,50,55,51,47,93,65,36,30.02,29.97,29.91,10,10,8,16,5,47,0.00,1,,340
2013-6-8,84,69,53,63,57,50,93,68,43,29.93,29.85,29.74,10,9,2,25,12,33,0.43,3,Rain-Thunderstorm,152
2013-6-9,83,71,59,63,60,51,93,64,34,29.88,29.82,29.76,10,9,5,24,9,29,0.11,4,Rain,258
2013-6-10,90,73,55,66,58,53,93,62,31,29.90,29.85,29.81,10,9,3,15,5,17,0.00,0,,45
2013-6-11,97,83,69,69,65,60,90,60,30,29.87,29.82,29.77,10,10,10,24,11,36,0.00,0,Thunderstorm,160
2013-6-12,95,83,70,72,68,59,74,58,42,29.93,29.79,29.74,10,10,10,29,14,37,0.00,0,,238
2013-6-13,86,72,57,64,59,54,87,65,43,30.06,30.01,29.95,10,10,10,18,6,23,0.00,0,,29
2013-6-14,93,78,63,74,68,61,93,72,50,30.00,29.93,29.84,10,10,10,21,11,26,0.00,0,,142
2013-6-15,91,79,66,73,69,65,90,70,50,30.00,29.93,29.88,10,9,2,32,8,43,0.15,3,Rain-Thunderstorm,157
2013-6-16,84,76,67,72,69,64,93,79,65,29.98,29.94,29.89,10,9,7,13,3,17,0.00,6,,72
2013-6-17,86,75,64,70,67,64,93,74,55,30.01,29.94,29.88,10,9,6,15,4,18,0.05,3,Rain-Thunderstorm,70
2013-6-18,89,75,61,69,63,60,100,70,40,30.01,29.99,29.98,10,8,2,16,4,20,0.01,0,Rain-Thunderstorm,2
2013-6-19,90,75,60,66,62,59,100,72,43,30.03,30.00,29.93,10,5,0,20,7,23,0.00,1,Fog,141
2013-6-20,93,81,68,73,69,65,90,71,52,29.99,29.93,29.86,10,10,10,26,13,33,0.00,1,,149
2013-6-21,96,86,76,73,71,66,87,67,46,29.94,29.91,29.86,10,10,9,25,12,33,T,0,,169
2013-6-22,95,86,77,70,68,66,69,57,44,29.96,29.90,29.83,10,10,10,26,13,36,0.00,0,,175
2013-6-23,93,85,76,74,70,67,79,63,46,29.93,29.87,29.77,10,10,9,30,11,39,T,1,Rain-Thunderstorm,164
2013-6-24,94,86,78,70,67,63,71,57,43,29.93,29.86,29.77,10,10,10,26,15,37,0.01,0,Rain-Thunderstorm,184
2013-6-25,93,84,74,73,70,67,87,68,49,29.87,29.78,29.70,10,9,2,28,14,35,0.24,3,Rain-Thunderstorm,178
2013-6-26,99,84,69,75,69,60,87,58,29,29.87,29.79,29.70,10,10,8,18,7,24,0.00,0,,291
2013-6-27,87,78,68,77,68,65,90,76,61,30.00,29.91,29.83,10,9,1,12,4,31,0.32,2,Rain-Thunderstorm,55
2013-6-28,90,78,65,71,64,56,100,67,34,29.96,29.92,29.87,10,8,1,24,8,29,0.00,1,,326
2013-6-29,87,74,60,60,56,51,84,58,32,29.89,29.86,29.82,10,10,10,31,13,40,0.00,1,,328
2013-6-30,82,70,58,58,55,54,84,63,42,30.04,29.97,29.91,10,10,10,18,9,25,0.00,1,,2